Main page
METAR-TAF:

METAR-TAF

Airports :

Qeshm International Airport

Qeshm, Iran

latitude: 26-45-18N, longitude: 055-54-08E, elevation: 12 m

Current weather observation

The report was made 1 hour and 7 minutes ago, at 12:00 UTC
Wind 23 kt from the West/Southwest
Temperature 27°C
Humidity 58%
Pressure 1012 hPa
Visibility: 3000 m
Few clouds at a height of 3000 ft, Towering cumulus.
haze

METAR: OIKQ 211200Z 25023KT 3000 HZ FEW030TCU 27/18 Q1012

Time: 16:37 (13:07 UTC)


TAF: missing

Weather observations and forecasts of more than 4000 airports (METAR and TAF reports).

The available stations are represented by yellow and red dots on the map.

Hover mouse over dot to see the name of the station.

Then click to see weather observations and forecasts.

To change the map : click on the green buttons with a black cross to zoom in, on the green button with a dash to zoom out, or on the green arrows for adjacent maps.


METAR-TAF: